Content
SEND FEEDBACK

Daily
Averages
Monthly
Summary
Albania

CEREDZIAS, ALBANIA


Home > Europe > Albania
Elevation: 295 feet     Latitude: 41 19N     Longitude: 019 46E

WEATHER
 
SELECT A DAY
Number of Records: 155,273;   Date Range: 7/6/96 - 9/15/14
 
SHARE

PRINT THIS DATA

[ ← Previous Day ]
WEATHER ALMANAC - JANUARY 31, 2013
[ Next Day → ]
[ °C ]   °F
Weather ElementAverageHighLow
Temperature42.9 °F55.4 °F (2:20 pm)33.8 °F (5:50 am)
Dewpoint37.7 °F44.6 °F (12:20 pm)32 °F (6:50 am)
Humidity82.7 %100 % (5:50 am)47 % (3:20 pm)
Barometer30.08 in30.15 in (7:50 pm)30.01 in (12:20 pm)
Wind Speed6.7 mph18.4 mph (2:20 pm)
Weather ElementAverage
Visibility5.7 mi
Wind DirectionSSW (203.9 °)

Weather ElementTotal
Precipitation---
Heating Degree Days20.4 (Base 65)
Averaged from 51 records on January 31, 2013
WEATHER CONDITIONS BREAKOUT
WIND DIRECTION BREAKOUT
WEATHER BY HOUR - JANUARY 31, 2013
[ °C ]   °F
Local TimeTemperatureDewpointHumidityBarometerVisibilityWind DirectionWind SpeedGust SpeedPrecipitationEventsConditions
12:50 AM37.4 °F35.6 °F93 %30.06 in3.1 miSSW (200°)4.6 mphMist
1:20 AM37.4 °F35.6 °F93 %30.06 in3.1 miSSW (200°)2.3 mphMist
1:50 AM35.6 °F33.8 °F93 %30.06 in3.1 miSE (140°)4.6 mphMist
2:20 AM37.4 °F35.6 °F93 %30.06 in5.0 miSSE (160°)2.3 mph
2:50 AM37.4 °F35.6 °F93 %30.04 in5.0 miSouth (190°)5.8 mph
3:20 AM39.2 °F35.6 °F87 %30.04 inSSW (210°)6.9 mphClear
3:50 AM41.0 °F35.6 °F81 %30.04 inSouth (190°)9.2 mphClear
4:00 AM36.0 °F34.0 °F89 %30.05 in8.0 miSSE (150°)2.2 mph
4:20 AM35.6 °F33.8 °F93 %30.04 inEast (80°)5.8 mphClear
4:50 AM35.6 °F33.8 °F93 %30.04 inVariable2.3 mphClear
5:20 AM35.6 °F33.8 °F93 %30.04 inWest (270°)3.5 mphClear
5:50 AM33.8 °F33.8 °F100 %30.04 inSE (130°)4.6 mphClear
6:20 AM35.6 °F33.8 °F93 %30.04 inSSW (210°)5.8 mphClear
6:50 AM33.8 °F32.0 °F93 %30.04 in5.0 miEast (100°)4.6 mph
7:20 AM37.4 °F35.6 °F93 %30.06 in4.3 miVariable2.3 mphMostly Cloudy
7:50 AM37.4 °F35.6 °F93 %30.06 in5.0 miVariable2.3 mphMostly Cloudy
8:20 AM39.2 °F37.4 °F93 %30.06 in5.6 miSouth (190°)5.8 mphMostly Cloudy
8:50 AM42.8 °F39.2 °F87 %30.06 in6.2 miSouth (170°)5.8 mphMostly Cloudy
9:20 AM44.6 °F39.2 °F81 %30.06 in6.2 miCalmOvercast
9:50 AM44.6 °F39.2 °F81 %30.09 in5.0 miENE (60°)3.5 mphOvercast
10:00 AM45.0 °F40.0 °F77 %30.11 in6.0 miNorth (350°)4.5 mphMostly Cloudy
10:20 AM44.6 °F41.0 °F87 %30.09 in4.3 miWNW (290°)4.6 mphOvercast
10:50 AM44.6 °F39.2 °F81 %30.12 in4.3 miNNW (330°)5.8 mphRainLight Rain
11:20 AM46.4 °F39.2 °F76 %30.09 in5.0 miNNW (340°)8.1 mphRainLight Rain
11:50 AM46.4 °F41.0 °F81 %30.06 in6.2 miNW (310°)9.2 mphOvercast
12:20 PM50.0 °F44.6 °F82 %30.01 in6.2 miSouth (170°)11.5 mphPartly Cloudy
12:50 PM53.6 °F42.8 °F67 %30.06 in6.2 miNorth (360°)10.4 mphPartly Cloudy
1:20 PM53.6 °F41.0 °F62 %30.09 in6.2 miNW (320°)13.8 mphPartly Cloudy
1:50 PM53.6 °F39.2 °F58 %30.06 inNNW (330°)15.0 mphClear
2:20 PM55.4 °F37.4 °F51 %30.06 inNW (320°)18.4 mphClear
2:50 PM55.4 °F37.4 °F51 %30.06 inNW (320°)17.3 mphClear
3:20 PM55.4 °F35.6 °F47 %30.06 inNW (320°)17.3 mphClear
3:50 PM55.4 °F39.2 °F54 %30.09 inNNW (330°)12.7 mphClear
4:00 PM54.0 °F41.0 °F51 %30.11 in31.0 miNNW (330°)13.4 mph
4:20 PM53.6 °F42.8 °F67 %30.09 inNorth (350°)11.5 mphClear
4:50 PM51.8 °F42.8 °F71 %30.09 inNorth (360°)8.1 mphClear
5:20 PM48.2 °F42.8 °F82 %30.12 inNNW (340°)4.6 mphClear
5:50 PM46.4 °F41.0 °F81 %30.12 inNW (320°)2.3 mphClear
6:20 PM46.4 °F42.8 °F87 %30.12 inWest (280°)1.2 mphClear
6:50 PM42.8 °F41.0 °F93 %30.12 inSE (130°)3.5 mphClear
7:20 PM41.0 °F37.4 °F87 %30.12 in3.1 miSE (130°)2.3 mphSmoke
7:50 PM39.2 °F35.6 °F87 %30.15 in4.3 miSSE (160°)5.8 mph
8:20 PM41.0 °F39.2 °F93 %30.15 in4.3 miSE (130°)3.5 mph
8:50 PM39.2 °F35.6 °F87 %30.15 in4.3 miSE (140°)5.8 mph
9:20 PM39.2 °F35.6 °F87 %30.12 in4.3 miSouth (170°)5.8 mph
9:50 PM37.4 °F35.6 °F93 %30.12 inSSE (160°)9.2 mphMist
10:00 PM37.0 °F36.0 °F92 %30.14 in2.0 miSouth (170°)6.7 mph
10:20 PM37.4 °F35.6 °F93 %30.12 in3.7 miSSE (160°)5.8 mph
10:50 PM39.2 °F37.4 °F93 %30.12 in5.6 miSouth (180°)5.8 mph
11:20 PM39.2 °F37.4 °F93 %30.12 in5.0 miSSE (150°)4.6 mph
11:50 PM37.4 °F35.6 °F93 %30.12 inNorth
Hourly data recorded from LATI, located miles away from Ceredzias, Albania







STORIES FROM OUR PARTNERS